Regional Weather Roundup
Issued by NWS Green Bay, WI

Home | Current Version | Previous Version | Text Only | Print | Product List | Glossary On
Versions: 1 2 3 4 5 6 7 8 9 10 11 12 13 14 15 16 17 18 19 20 21 22 23 24 25 26 27 28 29 30 31 32 33 34 35 36 37 38 39 40 41 42 43 44 45 46 47 48 49 50
000
ASUS43 KGRB 052311
RWRGRB

NORTH-CENTRAL AND NORTHEAST WISCONSIN REGIONAL WEATHER ROUNDUP
NATIONAL WEATHER SERVICE GREEN BAY WI
500 PM CST FRI FEB 05 2016

WIZ005-009-010>012-018-019-060000-
NORTH CENTRAL WISCONSIN

CITY           SKY/WX    TMP DP  RH WIND       PRES   REMARKS
IRONWOOD       CLOUDY    27  12  54 S6        30.12F
MANITOWISH WTR CLOUDY    24   8  51 SW7       30.15F
ARBOR VITAE    CLOUDY    26  11  52 S7        30.16F
EAGLE RIVER    CLEAR     25   7  45 S3        30.16F
LAND O LAKES   CLOUDY    26   8  47 S5        30.16F
RHINELANDER    CLOUDY    25   6  44 SW8       30.18F
PHILLIPS       CLOUDY    23  10  58 S7        30.18S
ANTIGO         CLEAR     20   9  63 SW7       30.22S
TOMAHAWK       CLEAR     23   6  46 CALM      30.21S
MERRILL        PTCLDY    22  11  62 SW5       30.24F
$$

WIZ013-073-060000-
NORTHEAST WISCONSIN

CITY           SKY/WX    TMP DP  RH WIND       PRES   REMARKS
IRON MOUNTAIN  CLOUDY    26   8  46 S5        30.20S
MARINETTE      CLEAR     23  12  63 S5        30.27F
OCONTO         CLOUDY    26  14  62 SW3       30.29S
$$

WIZ017-030-035>037-045-060000-
CENTRAL WISCONSIN

CITY           SKY/WX    TMP DP  RH WIND       PRES   REMARKS
MEDFORD        CLEAR     19  12  73 S6        30.22S
WAUSAU         CLOUDY    25  12  58 S6        30.23F
MOSINEE        CLEAR     21  16  79 S5        30.26S
MARSHFIELD     CLOUDY    24  13  62 CALM      30.24S
WISC RAPIDS    CLOUDY    24  14  65 S6        30.29S
STEVENS POINT  CLOUDY    23  15  71 S7        30.27F
WAUPACA        CLOUDY    27  16  64 SW3       30.29S
SHAWANO        CLOUDY    29  15  54 CALM      30.28S
CLINTONVILLE   CLOUDY    23  14  68 SW8       30.28S
WAUTOMA        CLOUDY    27  18  69 CALM      30.31S
$$

WIZ038-039-048-051-060000-
FOX VALLEY

CITY           SKY/WX    TMP DP  RH WIND       PRES   REMARKS
NWS GREEN BAY  CLOUDY    23  15  71 S5        30.30R
APPLETON       MOCLDY    25  14  63 SW8       30.27S
OSHKOSH        CLOUDY    25  15  66 SW7       30.30S
FOND DU LAC    CLOUDY    25  15  66 SW6       30.31F
$$

WIZ022-050-052-060000-
EAST CENTRAL WISCONSIN

CITY           SKY/WX    TMP DP  RH WIND       PRES   REMARKS
EPHRAIM        FAIR      21  13  71 SW5       30.27S
STURGEON BAY   CLOUDY    21  12  68 SW5       30.30F
MANITOWOC      CLOUDY    24  16  71 W5        30.32S
SHEBOYGAN      CLOUDY    25  15  66 W9        30.32R
$$

LMZ563-521-522-541>543-060000-
LAKESHORE

STATION/POSITION TIME  TEMP    WIND        PRES    VSBY  WAVE
                       AIR SEA DIR/SP/G                  HT/PER
                 (UTC) (F)     (DEG/KT/KT) (MB)    (MI)  (FT/S)
SHEBOYGAN LKSHOR 2300   27     260/  7/  8 1028.1R
KEWAUNEE LKSHORE 2200   25     270/  3/  7 1025.2S
ALGOMA MARINA    2211          270/  6/  9   N/A
NORTHPORT PIER   2300   23     200/  2/ 13 1025.1F
CHAMBERS ISLAND  2240   22     180/  5/  9 1025.4F
MENOMINEE LKSHOR 2200   24     190/  9     1024.4R
$$



USA.gov is the U.S. government's official web portal to all federal, state and local government web resources and services.